• In Belarus
  • List of Countries
  • For 7 days
  • Water Temperature
  • Satellite Maps
  • Weather Map
  • Weather Widgets
  • user-avatar
    Login

    Hourly Weather Pidchumal'

    Today, 19 April, Friday

    Time Temperature Precipitation Wind Pressure Humidity
    00:00 +5°C° 0 mm 2 mps 692 mmHg 92%
    01:00 +6°C° 0 mm 2 mps 691 mmHg 89%
    02:00 +3°C° 0 mm 0 mps 691 mmHg 85%
    03:00 +6°C° 0 mm 1 mps 691 mmHg 76%
    04:00 +6°C° 0 mm 1 mps 690 mmHg 77%
    05:00 +5°C° 0 mm 2 mps 690 mmHg 78%
    06:00 +4°C° 0 mm 2 mps 690 mmHg 80%
    07:00 +3°C° 0 mm 3 mps 690 mmHg 87%
    08:00 +5°C° 0 mm 4 mps 690 mmHg 90%
    09:00 +6°C° 0 mm 5 mps 691 mmHg 87%
    10:00 +7°C° 0 mm 6 mps 691 mmHg 79%
    11:00 +7°C° 0 mm 6 mps 692 mmHg 77%
    12:00 +8°C° 0 mm 6 mps 692 mmHg 79%
    13:00 +8°C° 0 mm 6 mps 692 mmHg 79%
    14:00 +8°C° 0 mm 6 mps 692 mmHg 79%
    15:00 +8°C° 0 mm 6 mps 692 mmHg 83%
    16:00 +8°C° 0 mm 6 mps 692 mmHg 81%
    17:00 +7°C° 0 mm 6 mps 692 mmHg 83%
    18:00 +5°C° 0 mm 6 mps 692 mmHg 84%
    19:00 +5°C° 0 mm 5 mps 691 mmHg 88%
    20:00 +3°C° 0 mm 5 mps 691 mmHg 92%
    21:00 +3°C° 0 mm 4 mps 691 mmHg 92%
    22:00 +3°C° 0 mm 4 mps 691 mmHg 93%
    23:00 +3°C° 0 mm 3 mps 691 mmHg 92%

    Tomorrow, 20 April, Saturday

    Time Temperature Precipitation Wind Pressure Humidity
    00:00 +2°C° 0 mm 3 mps 691 mmHg 92%
    01:00 +2°C° 0 mm 3 mps 691 mmHg 93%
    02:00 +2°C° 0 mm 3 mps 691 mmHg 92%
    03:00 +2°C° 0 mm 3 mps 691 mmHg 92%
    04:00 0°C° 0 mm 4 mps 691 mmHg 93%
    05:00 0°C° 0 mm 4 mps 691 mmHg 93%
    06:00 +1°C° 0 mm 3 mps 690 mmHg 94%
    07:00 +2°C° 0 mm 3 mps 691 mmHg 94%
    08:00 +4°C° 0 mm 2 mps 691 mmHg 93%
    09:00 +4°C° 0 mm 3 mps 692 mmHg 87%
    10:00 +6°C° 0 mm 4 mps 693 mmHg 84%
    11:00 +7°C° 0 mm 4 mps 693 mmHg 83%
    12:00 +7°C° 0 mm 4 mps 693 mmHg 80%
    13:00 +9°C° 0 mm 3 mps 693 mmHg 76%
    14:00 +9°C° 0 mm 3 mps 692 mmHg 75%
    15:00 +10°C° 0 mm 2 mps 692 mmHg 74%
    16:00 +10°C° 0 mm 2 mps 692 mmHg 77%
    17:00 +9°C° 0 mm 2 mps 691 mmHg 75%
    18:00 +8°C° 0 mm 2 mps 691 mmHg 85%
    19:00 +9°C° 0 mm 1 mps 691 mmHg 90%
    20:00 +8°C° 0 mm 1 mps 690 mmHg 94%
    21:00 +8°C° 0 mm 1 mps 690 mmHg 95%
    22:00 +7°C° 0 mm 1 mps 690 mmHg 96%
    23:00 +6°C° 0 mm 0 mps 689 mmHg 93%

    Day after tomorrow, 21 April, Sunday

    Time Temperature Precipitation Wind Pressure Humidity
    00:00 +6°C° 0 mm 0 mps 689 mmHg 91%
    01:00 +6°C° 0 mm 0 mps 689 mmHg 89%
    02:00 +6°C° 0.1 mm 1 mps 688 mmHg 100%
    03:00 +4°C° 3.3 mm 2 mps 688 mmHg 100%
    04:00 +5°C° 2 mm 1 mps 687 mmHg 100%
    05:00 +5°C° 0.7 mm 1 mps 687 mmHg 100%
    06:00 +5°C° 0 mm 1 mps 687 mmHg 100%
    07:00 +6°C° 0 mm 1 mps 687 mmHg 100%
    08:00 +6°C° 0 mm 2 mps 687 mmHg 100%
    09:00 +7°C° 0 mm 2 mps 688 mmHg 96%
    10:00 +8°C° 0 mm 2 mps 688 mmHg 91%
    11:00 +9°C° 0 mm 2 mps 688 mmHg 86%
    12:00 +10°C° 0 mm 4 mps 687 mmHg 88%
    13:00 +7°C° 0.7 mm 4 mps 687 mmHg 99%
    14:00 +10°C° 0 mm 2 mps 687 mmHg 86%
    15:00 +10°C° 0 mm 3 mps 687 mmHg 89%
    16:00 +8°C° 1.2 mm 3 mps 686 mmHg 100%
    17:00 +7°C° 2.2 mm 2 mps 686 mmHg 100%
    18:00 +9°C° 0.7 mm 1 mps 685 mmHg 93%
    19:00 +7°C° 2.1 mm 1 mps 685 mmHg 100%
    20:00 +7°C° 0.1 mm 1 mps 685 mmHg 100%
    21:00 +6°C° 0.1 mm 1 mps 685 mmHg 100%
    22:00 +6°C° 0 mm 1 mps 685 mmHg 100%
    23:00 +5°C° 0 mm 2 mps 685 mmHg 99%

    22 April, Monday

    Time Temperature Precipitation Wind Pressure Humidity
    00:00 +6°C° 0 mm 1 mps 685 mmHg 97%
    01:00 +6°C° 0 mm 1 mps 685 mmHg 94%
    02:00 +6°C° 0 mm 1 mps 685 mmHg 92%
    03:00 +6°C° 0 mm 1 mps 684 mmHg 91%
    04:00 +6°C° 0 mm 1 mps 684 mmHg 89%
    05:00 +6°C° 0 mm 1 mps 684 mmHg 88%
    06:00 +6°C° 0 mm 1 mps 684 mmHg 88%
    07:00 +5°C° 0 mm 2 mps 685 mmHg 95%
    08:00 +6°C° 0 mm 2 mps 685 mmHg 96%
    09:00 +9°C° 0 mm 1 mps 686 mmHg 92%
    10:00 +9°C° 0 mm 3 mps 686 mmHg 94%
    11:00 +9°C° 0.3 mm 3 mps 686 mmHg 97%
    12:00 +9°C° 0.6 mm 3 mps 686 mmHg 96%
    13:00 +6°C° 2.3 mm 5 mps 686 mmHg 100%
    14:00 +7°C° 6.1 mm 3 mps 686 mmHg 100%
    15:00 +6°C° 1.1 mm 5 mps 687 mmHg 100%
    16:00 +8°C° 0.2 mm 4 mps 686 mmHg 95%
    17:00 +10°C° 0 mm 4 mps 687 mmHg 90%
    18:00 +8°C° 0.1 mm 5 mps 686 mmHg 95%
    19:00 +7°C° 0.2 mm 4 mps 687 mmHg 94%
    20:00 +7°C° 0 mm 5 mps 687 mmHg 90%
    21:00 +5°C° 0 mm 6 mps 687 mmHg 89%
    22:00 +4°C° 0 mm 6 mps 687 mmHg 90%
    23:00 +4°C° 0 mm 6 mps 687 mmHg 91%

    23 April, Tuesday

    Time Temperature Precipitation Wind Pressure Humidity
    00:00 +3°C° 0 mm 6 mps 687 mmHg 91%
    01:00 +3°C° 0 mm 6 mps 687 mmHg 91%
    02:00 +3°C° 0 mm 5 mps 687 mmHg 90%

    24 April, Wednesday

    Time Temperature Precipitation Wind Pressure Humidity
    Show more